| time (UTC) | temp F | wind direction | speed MPH | gust MPH | rain 1hr in | rain 24hr in | rain mn in | humidity % | barometer mb |
| 20260507030053 | 70 | 22 | 9.0 | 15.0 | 0.00 | 0.01 | 0.01 | 84 | 1012.9 |
| 20260507024547 | 71 | 16 | 7.0 | 12.0 | 0.00 | 0.01 | 0.01 | 85 | 1012.6 |
| 20260507023047 | 71 | 30 | 9.0 | 15.0 | 0.00 | 0.01 | 0.01 | 85 | 1012.4 |
| 20260507021548 | 72 | 25 | 7.0 | 14.0 | 0.00 | 0.01 | 0.01 | 84 | 1012.2 |
| 20260507020053 | 72 | 360 | 8.0 | 14.0 | 0.00 | 0.01 | 0.01 | 85 | 1012.0 |
| 20260507014601 | 73 | 22 | 12.0 | 16.0 | 0.00 | 0.01 | 0.01 | 85 | 1011.5 |
| 20260507013047 | 73 | 13 | 9.0 | 15.0 | 0.00 | 0.01 | 0.01 | 84 | 1011.2 |
| 20260507011602 | 74 | 11 | 13.0 | 17.0 | 0.00 | 0.01 | 0.01 | 85 | 1011.3 |
| 20260507010046 | 74 | 5 | 13.0 | 17.0 | 0.00 | 0.01 | 0.01 | 85 | 1010.9 |
| 20260507004551 | 75 | 360 | 13.0 | 19.0 | 0.00 | 0.01 | 0.01 | 85 | 1010.6 |
| 20260507003047 | 75 | 5 | 13.0 | 17.0 | 0.00 | 0.01 | 0.01 | 85 | 1010.2 |
| 20260507001605 | 75 | 5 | 10.0 | 22.0 | 0.00 | 0.01 | 0.01 | 85 | 1009.9 |
| 20260507000056 | 76 | 5 | 19.0 | 27.0 | 0.00 | 0.01 | 0.01 | 84 | 1009.8 |
| 20260506234548 | 76 | 17 | 15.0 | 22.0 | 0.00 | 0.01 | 0.01 | 86 | 1009.7 |
| 20260506233046 | 76 | 350 | 19.0 | 24.0 | 0.00 | 0.01 | 0.01 | 86 | 1009.5 |
| 20260506231545 | 82 | 350 | 4.0 | 6.0 | 0.00 | 0.01 | 0.01 | 85 | 1009.4 |
| 20260506230054 | 83 | 0 | 0.0 | 0.0 | 0.00 | 0.01 | 0.01 | 82 | 1009.1 |
| 20260506224549 | 82 | 0 | 0.0 | 0.0 | 0.00 | 0.01 | 0.01 | 84 | 1008.8 |
| 20260506223048 | 83 | 336 | 2.0 | 4.0 | 0.00 | 0.01 | 0.01 | 83 | 1008.9 |
| 20260506221547 | 84 | 174 | 0.0 | 0.0 | 0.00 | 0.01 | 0.01 | 79 | 1008.8 |
| 20260506220058 | 85 | 0 | 1.0 | 3.0 | 0.00 | 0.01 | 0.01 | 78 | 1008.7 |
| 20260506214548 | 84 | 174 | 0.0 | 2.0 | 0.00 | 0.02 | 0.01 | 79 | 1008.7 |
| 20260506213041 | 84 | 0 | 0.0 | 2.0 | 0.00 | 0.02 | 0.01 | 79 | 1008.7 |
| 20260506211542 | 82 | 0 | 0.0 | 1.0 | 0.00 | 0.02 | 0.01 | 81 | 1009.1 |
| 20260506210057 | 81 | 0 | 0.0 | 2.0 | 0.00 | 0.02 | 0.01 | 84 | 1009.1 |
| 20260506204550 | 81 | 286 | 0.0 | 3.0 | 0.00 | 0.02 | 0.01 | 84 | 1009.3 |
| 20260506203137 | 82 | 300 | 2.0 | 4.0 | 0.00 | 0.02 | 0.01 | 82 | 1009.5 |
| 20260506201548 | 82 | 0 | 0.0 | 1.0 | 0.00 | 0.02 | 0.01 | 82 | 1009.6 |
| 20260506200052 | 81 | 0 | 0.0 | 3.0 | 0.00 | 0.02 | 0.01 | 82 | 1009.6 |
| 20260506194549 | 82 | 284 | 1.0 | 3.0 | 0.00 | 0.02 | 0.01 | 82 | 1009.7 |
| 20260506193048 | 83 | 0 | 0.0 | 2.0 | 0.00 | 0.02 | 0.01 | 80 | 1009.7 |
| 20260506191554 | 83 | 203 | 2.0 | 5.0 | 0.00 | 0.02 | 0.01 | 80 | 1009.8 |
| 20260506190057 | 83 | 194 | 5.0 | 7.0 | 0.00 | 0.02 | 0.01 | 80 | 1010.0 |
| 20260506184559 | 81 | 196 | 1.0 | 5.0 | 0.00 | 0.02 | 0.01 | 84 | 1010.1 |
| 20260506183058 | 79 | 159 | 3.0 | 6.0 | 0.00 | 0.02 | 0.01 | 86 | 1010.3 |
| 20260506181545 | 79 | 147 | 2.0 | 6.0 | 0.00 | 0.02 | 0.01 | 87 | 1010.9 |
| 20260506180048 | 79 | 0 | 0.0 | 3.0 | 0.00 | 0.02 | 0.01 | 86 | 1011.3 |
| 20260506174555 | 79 | 146 | 2.0 | 4.0 | 0.00 | 0.02 | 0.01 | 86 | 1011.6 |
| 20260506173054 | 79 | 180 | 0.0 | 3.0 | 0.00 | 0.02 | 0.01 | 87 | 1011.7 |
| 20260506171550 | 78 | 0 | 0.0 | 0.0 | 0.00 | 0.02 | 0.01 | 87 | 1011.9 |
| 20260506170053 | 78 | 0 | 0.0 | 4.0 | 0.00 | 0.02 | 0.01 | 87 | 1012.0 |
| 20260506164552 | 78 | 184 | 3.0 | 7.0 | 0.00 | 0.02 | 0.01 | 87 | 1011.8 |
| 20260506163104 | 78 | 175 | 6.0 | 9.0 | 0.01 | 0.02 | 0.01 | 87 | 1011.4 |
| 20260506161547 | 78 | 175 | 5.0 | 7.0 | 0.01 | 0.02 | 0.01 | 88 | 1011.3 |
| 20260506160053 | 77 | 174 | 6.0 | 8.0 | 0.01 | 0.02 | 0.01 | 90 | 1011.2 |
| 20260506154555 | 76 | 164 | 4.0 | 7.0 | 0.01 | 0.02 | 0.01 | 92 | 1011.3 |
| 20260506153109 | 76 | 157 | 4.0 | 6.0 | 0.00 | 0.01 | 0.00 | 92 | 1011.2 |
| 20260506151546 | 76 | 171 | 3.0 | 5.0 | 0.00 | 0.01 | 0.00 | 93 | 1011.3 |
| 20260506150048 | 75 | 156 | 4.0 | 6.0 | 0.00 | 0.01 | 0.00 | 93 | 1011.0 |
| 20260506144548 | 75 | 180 | 6.0 | 9.0 | 0.00 | 0.01 | 0.00 | 93 | 1011.0 |
| 20260506143045 | 75 | 179 | 6.0 | 8.0 | 0.00 | 0.01 | 0.00 | 93 | 1010.7 |
| 20260506141549 | 75 | 173 | 6.0 | 9.0 | 0.00 | 0.01 | 0.00 | 93 | 1010.7 |
| 20260506140051 | 75 | 173 | 6.0 | 8.0 | 0.00 | 0.01 | 0.00 | 93 | 1010.6 |
| 20260506134547 | 75 | 177 | 4.0 | 6.0 | 0.00 | 0.01 | 0.00 | 93 | 1010.7 |
| 20260506133052 | 75 | 172 | 5.0 | 7.0 | 0.00 | 0.01 | 0.00 | 93 | 1010.8 |
| 20260506131546 | 74 | 163 | 4.0 | 8.0 | 0.00 | 0.01 | 0.00 | 93 | 1010.9 |
| 20260506130047 | 74 | 157 | 3.0 | 7.0 | 0.00 | 0.01 | 0.00 | 93 | 1010.8 |
| 20260506124555 | 74 | 155 | 3.0 | 7.0 | 0.00 | 0.01 | 0.00 | 93 | 1010.7 |
| 20260506123050 | 74 | 166 | 5.0 | 6.0 | 0.00 | 0.01 | 0.00 | 93 | 1010.6 |
| 20260506121602 | 74 | 165 | 4.0 | 6.0 | 0.00 | 0.01 | 0.00 | 93 | 1010.5 |
| 20260506120048 | 74 | 182 | 4.0 | 6.0 | 0.00 | 0.01 | 0.00 | 93 | 1010.3 |
| 20260506114546 | 74 | 179 | 3.0 | 8.0 | 0.00 | 0.01 | 0.00 | 93 | 1010.0 |
| 20260506113050 | 74 | 193 | 4.0 | 6.0 | 0.00 | 0.01 | 0.00 | 93 | 1009.9 |
| 20260506111551 | 75 | 189 | 5.0 | 9.0 | 0.00 | 0.01 | 0.00 | 92 | 1009.8 |
| 20260506110056 | 75 | 192 | 6.0 | 8.0 | 0.00 | 0.01 | 0.00 | 92 | 1009.7 |
| 20260506104551 | 75 | 179 | 7.0 | 10.0 | 0.00 | 0.01 | 0.00 | 92 | 1009.6 |
| 20260506103051 | 75 | 177 | 7.0 | 11.0 | 0.00 | 0.01 | 0.00 | 92 | 1009.4 |
| 20260506101556 | 75 | 190 | 7.0 | 10.0 | 0.00 | 0.01 | 0.00 | 92 | 1009.6 |
| 20260506100055 | 75 | 180 | 6.0 | 9.0 | 0.00 | 0.01 | 0.00 | 92 | 1009.4 |
| 20260506094553 | 75 | 175 | 5.0 | 10.0 | 0.00 | 0.01 | 0.00 | 92 | 1009.3 |
| 20260506093051 | 75 | 182 | 9.0 | 11.0 | 0.00 | 0.01 | 0.00 | 91 | 1009.1 |
| 20260506091548 | 75 | 201 | 11.0 | 14.0 | 0.00 | 0.01 | 0.00 | 91 | 1009.0 |
| 20260506090100 | 75 | 196 | 10.0 | 14.0 | 0.00 | 0.01 | 0.00 | 91 | 1009.2 |
| 20260506084552 | 75 | 211 | 9.0 | 12.0 | 0.00 | 0.01 | 0.00 | 91 | 1009.2 |
| 20260506083046 | 75 | 206 | 9.0 | 12.0 | 0.00 | 0.01 | 0.00 | 91 | 1009.2 |
| 20260506081544 | 75 | 184 | 10.0 | 16.0 | 0.00 | 0.01 | 0.00 | 91 | 1009.1 |
| 20260506073048 | 75 | 176 | 10.0 | 13.0 | 0.00 | 0.01 | 0.00 | 91 | 1009.4 |
| 20260506071548 | 75 | 196 | 9.0 | 11.0 | 0.00 | 0.01 | 0.00 | 91 | 1009.6 |
| 20260506061550 | 75 | 205 | 12.0 | 19.0 | 0.00 | 0.01 | 0.00 | 90 | 1009.7 |
| 20260506050109 | 76 | 199 | 17.0 | 25.0 | 0.00 | 0.01 | 0.00 | 90 | 1009.6 |
| 20260506044549 | 76 | 185 | 15.0 | 20.0 | 0.00 | 0.01 | 0.01 | 90 | 1009.5 |
| 20260506043049 | 76 | 192 | 15.0 | 22.0 | 0.00 | 0.01 | 0.01 | 90 | 1009.5 |
| 20260506041558 | 76 | 185 | 15.0 | 24.0 | 0.00 | 0.01 | 0.01 | 90 | 1009.2 |
| 20260506040055 | 76 | 192 | 14.0 | 21.0 | 0.00 | 0.01 | 0.01 | 90 | 1009.3 |
| 20260506034552 | 76 | 184 | 14.0 | 20.0 | 0.00 | 0.02 | 0.01 | 90 | 1009.2 |
| 20260506033047 | 76 | 186 | 13.0 | 20.0 | 0.00 | 0.02 | 0.01 | 90 | 1009.1 |
| 20260506031545 | 76 | 184 | 12.0 | 16.0 | 0.00 | 0.02 | 0.01 | 90 | 1008.9 |